Regional Weather Roundup
Issued by NWS

Home | Current Version | Previous Version | Graphics & Text | Print | Product List | Glossary On
Versions: 1 2 3 4 5 6 7 8 9 10 11 12 13 14 15 16 17 18 19 20 21 22 23 24 25 26 27 28 29 30 31 32 33 34 35 36 37 38 39 40 41 42 43 44 45 46 47 48 49 50
000
ASUS44 KMEG 252310
RWRTN
TENNESSEE HOURLY STATE WEATHER ROUNDUP
NATIONAL WEATHER SERVICE MEMPHIS TN
500 PM CST THU DEC 25 2014

TNZ002-004-019-021-049-052-054-088>092-260000-
WEST TENNESSEE

CITY           SKY/WX    TMP DP  RH WIND       PRES   REMARKS
MEMPHIS INTL   PTCLDY    50  31  48 S8        30.11F
NWS MEMPHIS      N/A     51 N/A N/A MISG        N/A
JACKSON        CLEAR     49  33  54 S7        30.13F
DYERSBURG      CLEAR     48  27  43 SE6       30.12F
UNION CITY     CLEAR     43  34  70 S9        30.11F
PARIS          CLEAR     45  34  65 S8        30.14S
HUNTINGDON     CLEAR     45  31  58 S6        30.15S
LEXINGTON      CLEAR     46  34  61 S6        30.15F
SAVANNAH       CLEAR     46  36  66 SE5       30.17F
$$

TNZ008-025-027-028-033-062-065-066-260000-
NORTH MIDDLE TENNESSEE

CITY           SKY/WX    TMP DP  RH WIND       PRES   REMARKS
NASHVILLE      CLEAR     45  34  65 S8        30.22R
CLARKSVILLE    CLEAR     46  33  60 S6        30.17S
SMYRNA         CLEAR     44  35  70 S6        30.24R
COOKEVILLE     CLEAR     37  34  87 CALM      30.22R
CROSSVILLE     CLEAR     41  33  73 S3        30.23R
$$

TNZ061-075-076-078-094-096-097-260000-
SOUTH MIDDLE TENNESSEE

CITY           SKY/WX    TMP DP  RH WIND       PRES   REMARKS
FAYETTEVILLE   CLEAR     43  34  70 MISG      30.21F
TULLAHOMA      CLEAR     41  34  75 S3        30.23S
WINCHESTER     CLEAR     45  36  70 CALM      30.23F
MCMINNVILLE    CLEAR     43  36  75 CALM      30.23R
COLUMBIA       CLEAR     46  37  71 S6        30.18F
SHELBYVILLE    CLEAR     45  36  70 S5        30.23F
$$

TNZ017-018-042-046-047-260000-
NORTHEAST TENNESSEE

CITY           SKY/WX    TMP DP  RH WIND       PRES   REMARKS
TRI CITIES     CLEAR     41  31  67 CALM      30.20R
ELIZABETHTON   CLEAR     34  30  86 CALM      30.20R
$$

TNZ012-013-036-069-073-074-260000-
CENTRAL EAST TENNESSEE

CITY           SKY/WX    TMP DP  RH WIND       PRES   REMARKS
KNOXVILLE      NOT AVBL
OAK RIDGE      CLEAR     45  33  63 SW5       30.26R
GATLINBURG     CLEAR     43  30  61 CALM      30.24R
MORRISTOWN     CLEAR     45  34  65 W5        30.23R
$$

TNZ083-085-099-260000-
SOUTHEAST TENNESSEE

CITY           SKY/WX    TMP DP  RH WIND       PRES   REMARKS
CHATTANOOGA    PTCLDY    48  34  58 CALM      30.24S
$$

SKY/WX REPORTED AS FAIR MEANS FEW OR NO CLOUDS BELOW
12 THOUSAND FEET.




USA.gov is the U.S. government's official web portal to all federal, state and local government web resources and services.